Zurück zum Katalog

STARLINK-33594

AktivKommunikationVLEO
NORAD 62770·PAYLOAD·🇺🇸 United States

Gestartet Jan 21, 2025 von Vandenberg Space Force Base

Loading…

Nächste Überflüge (nächste 24 Stunden)

TLE

AktuellSource: CelesTrak SupGP

Epoche: Sep 15, 2026, 03:22 UTC

1 62770C 25015N   26258.14076389  .00008707  00000+0  28001-3 0  2589
2 62770  53.1566 160.7710 0001261  87.8202 178.3165 15.31696815    16

Verfolge STARLINK-33594 in Echtzeit mit AllMySat

Download on the App Store